Weather History for KCOS - May, 2013

Change the Weather History Date:

Wednesday, May 8, 2013

  Actual Average Record
Temperature  
Mean Temperature 48 °F 54 °F  
Max Temperature 52 °F 67 °F 85 °F (1895)
Min Temperature 44 °F 40 °F 27 °F (1938)
Degree Days  
Heating Degree Days 17 12  
Month to date heating degree days 165 101  
Since 1 July heating degree days 5984 6023  
Cooling Degree Days 0 0  
Month to date cooling degree days 0 0  
Year to date cooling degree days 0 1  
Moisture  
Dew Point 38 °F    
Average Humidity 72    
Maximum Humidity 89    
Minimum Humidity 54    
Precipitation  
Precipitation 0.24 in 0.06 in 1.65 in (1958)
Month to date precipitation 0.45 0.45  
Year to date precipitation 2.04 3.53  
Snow  
Snow 0.00 in 0.10 in 3.00 in (1917)
Month to date snowfall 1.8 0.5  
Since 1 July snowfall 29.6 37.5  
Snow Depth 0.00 in    
Sea Level Pressure  
Sea Level Pressure 29.96 in    
Wind  
Wind Speed 12 mph (NNW)    
Max Wind Speed 30 mph    
Max Gust Speed 38 mph    
Visibility 9 miles    
Events Rain , Thunderstorm    
T = Trace of Precipitation, MM = Missing Value Source: NWS Daily Summary

Daily Weather History Graph

Daily Weather History Graph

Search for Another Location

Airport or City:

Trip Planner

Search our weather history database for the weather conditions in past years. The results will help you decide how hot, cold, wet, or windy it might be!

Date:

Astronomy

May. 08, 2013 Rise Set
Actual Time 5:52 AM MDT 7:58 PM MDT
Civil Twilight 5:23 AM MDT 8:27 PM MDT
Nautical Twilight 4:47 AM MDT 9:03 PM MDT
Astronomical Twilight 4:08 AM MDT 9:42 PM MDT
Moon 5:01 AM MDT (5/8) 6:59 PM MDT (5/8)
Length of Visible Light 15h 04m
Length of Day
14h 05m
Waning Crescent, 2% of the Moon is Illuminated
May 8
Waning Crescent
May 9
New
May 17
First Quarter
May 24
Full
May 31
Last Quarter

Hourly Weather History & Observations

Time (MDT) Temp. Windchill Dew Point Humidity Pressure Visibility Wind Dir Wind Speed Gust Speed Precip Events Conditions
12:54 AM 48.9 °F - 39.0 °F 69% 29.87 in 10.0 mi NW 12.7 mph - N/A   Scattered Clouds
1:54 AM 48.0 °F - 37.9 °F 68% 29.86 in 10.0 mi NW 10.4 mph - N/A   Mostly Cloudy
2:54 AM 48.0 °F - 37.0 °F 66% 29.83 in 10.0 mi NNW 10.4 mph - N/A   Mostly Cloudy
3:54 AM 48.9 °F - 37.0 °F 64% 29.85 in 10.0 mi NW 5.8 mph - N/A   Mostly Cloudy
4:54 AM 48.9 °F - 36.0 °F 61% 29.86 in 10.0 mi West 6.9 mph - N/A   Overcast
5:54 AM 48.9 °F - 39.0 °F 69% 29.88 in 7.0 mi WSW 11.5 mph - 0.00 in Rain Light Rain
6:54 AM 48.0 °F - 39.9 °F 74% 29.92 in 10.0 mi NE 11.5 mph - 0.02 in   Mostly Cloudy
7:54 AM 48.9 °F - 39.9 °F 71% 29.93 in 10.0 mi NNW 8.1 mph - 0.00 in   Mostly Cloudy
8:54 AM 50.0 °F - 39.9 °F 68% 29.93 in 10.0 mi NNW 8.1 mph - N/A   Mostly Cloudy
9:10 AM 51.8 °F - 37.4 °F 58% 30.05 in 10.0 mi North 8.1 mph - N/A Thunderstorm Thunderstorm
9:54 AM 52.0 °F - 37.9 °F 59% 29.93 in 10.0 mi NE 3.5 mph - N/A   Mostly Cloudy
10:54 AM 48.9 °F - 39.9 °F 71% 29.97 in 10.0 mi East 11.5 mph - 0.00 in Rain Light Rain
11:35 AM 46.4 °F 39.2 °F 41.0 °F 81% 30.09 in 7.0 mi SSE 18.4 mph - 0.02 in Rain Light Rain
11:54 AM 45.0 °F 37.4 °F 41.0 °F 86% 30.04 in 4.0 mi SSE 18.4 mph - 0.04 in Rain Rain
12:54 PM 44.1 °F 39.0 °F 41.0 °F 89% 30.04 in 7.0 mi East 9.2 mph - 0.12 in Rain Light Rain
1:37 PM 44.6 °F 34.7 °F 39.2 °F 81% 30.04 in 7.0 mi NW 29.9 mph 38.0 mph 0.06 in Rain Light Rain
1:54 PM 45.0 °F 36.6 °F 39.9 °F 82% 29.96 in 10.0 mi NNW 21.9 mph 34.5 mph 0.06 in Rain Light Rain
2:54 PM 46.9 °F - 43.0 °F 86% 29.95 in 10.0 mi NNW 17.3 mph 23.0 mph 0.00 in   Mostly Cloudy
3:54 PM 51.1 °F - 37.0 °F 59% 29.94 in 10.0 mi NNW 6.9 mph - N/A   Mostly Cloudy
4:54 PM 50.0 °F - 37.0 °F 61% 29.96 in 10.0 mi Variable 5.8 mph - N/A   Overcast
5:54 PM 51.1 °F - 35.1 °F 54% 29.90 in 10.0 mi NNW 16.1 mph 21.9 mph N/A   Overcast
6:54 PM 48.9 °F - 36.0 °F 61% 29.93 in 10.0 mi North 13.8 mph - N/A   Mostly Cloudy
7:54 PM 46.9 °F - 35.1 °F 63% 29.96 in 10.0 mi NNW 19.6 mph 24.2 mph N/A   Mostly Cloudy
8:54 PM 46.0 °F 39.0 °F 37.0 °F 71% 30.01 in 10.0 mi NNW 17.3 mph 26.5 mph N/A   Mostly Cloudy
9:54 PM 46.0 °F 39.9 °F 37.0 °F 71% 30.02 in 10.0 mi NW 13.8 mph - N/A   Overcast
10:54 PM 46.0 °F 41.4 °F 37.9 °F 73% 30.04 in 10.0 mi WNW 9.2 mph - N/A   Overcast
11:54 PM 45.0 °F 40.1 °F 37.0 °F 74% 30.07 in 10.0 mi WNW 9.2 mph - N/A   Overcast